This demonstration page uses our WeatherBlox Daily Observations layout. Learn more.

Left ArrowRight Arrow

38.88101, -77.10428

Hourly Observations for December 4, 2015

Temp ( °F °C ) Dew Point ( °F °C ) Humidity (%) Winds ( mph kmh ) Pressure ( in mb ) Visibility ( mi km ) Precip ( " mm )
12:52 am 00:52 Cloudy 41 5 31 -0.6 67 67 SW 5 7 30.39 1029 10 16 N/A
1:52 am 01:52 Cloudy 40 4.4 31 -0.6 70 70 SSW 5 7 30.40 1030 10 16 N/A
2:52 am 02:52 Mostly Cloudy 40 4.4 30 -1.1 68 68 SW 5 7 30.42 1030 10 16 N/A
3:52 am 03:52 Mostly Clear 40 4.4 29 -1.7 65 65 W 7 11 30.43 1030 10 16 N/A
4:52 am 04:52 Clear 39 3.9 29 -1.7 67 67 W 7 11 30.44 1031 10 16 N/A
5:52 am 05:52 Clear 39 3.9 29 -1.7 67 67 W 7 11 30.46 1032 10 16 N/A
6:52 am 06:52 Mostly Clear 37 2.8 29 -1.7 73 73 WSW 5 7 30.49 1032 10 16 N/A
7:52 am 07:52 Mostly Sunny 38 3.3 30 -1.1 73 73 WSW 6 9 30.50 1033 10 16 N/A
8:52 am 08:52 Mostly Sunny 43 6.1 30 -1.1 60 60 W 9 15 30.52 1034 10 16 N/A
9:52 am 09:52 Sunny 46 7.8 31 -0.6 56 56 WNW 9 15 30.54 1034 10 16 N/A
10:52 am 10:52 Sunny 47 8.3 30 -1.1 52 52 W 10 17 30.53 1034 10 16 N/A
11:52 am 11:52 Sunny 49 9.4 31 -0.6 50 50 WNW 10 17 30.52 1034 10 16 N/A
12:52 pm 12:52 Sunny 50 10 32 undefined 50 50 W 5 7 30.50 1033 10 16 N/A
1:52 pm 13:52 Sunny 52 11.1 31 -0.6 45 45 VRB 3 6 30.50 1033 10 16 N/A
2:52 pm 14:52 Sunny 53 11.7 31 -0.6 43 43 VRB 6 9 30.50 1033 10 16 N/A
3:52 pm 15:52 Sunny 51 10.6 31 -0.6 46 46 WNW 8 13 30.51 1033 10 16 N/A
4:52 pm 16:52 Clear 49 9.4 30 -1.1 48 48 W 7 11 30.52 1034 10 16 N/A
5:52 pm 17:52 Clear 49 9.4 31 -0.6 50 50 W 5 7 30.54 1034 10 16 N/A
6:52 pm 18:52 Clear 48 8.9 31 -0.6 52 52 N N/A 30.55 1035 10 16 N/A
7:52 pm 19:52 Clear 45 7.2 32 undefined 61 61 WSW 3 6 30.57 1035 10 16 N/A
8:52 pm 20:52 Clear 43 6.1 37 2.8 80 80 NNE 3 6 30.59 1036 10 16 N/A
9:52 pm 21:52 Clear 41 5 36 2.2 82 82 N N/A 30.61 1037 10 16 N/A
10:52 pm 22:52 Clear 41 5 36 2.2 82 82 N N/A 30.62 1037 10 16 N/A
11:52 pm 23:52 Clear 40 4.4 33 0.6 77 77 N N/A 30.63 1037 10 16 N/A

Powered by AerisWeather